Location: Morisset
(33.1080°S, 151.4871°E)
Time: 12:45:23
(UTC+00:00)

Cosmos 1452 Rocket - Pass Details

Date: 29 October 2020
Orbit: 766 x 775 km, 74.1° (Epoch: 23 November)

Event Time Altitude Azimuth Distance (km) Brightness Sun altitude
Exits shadow 18:17:25 - 332° (NNW) 2,969 6.1 -8.6°
Reaches altitude 10° 18:19:08 10° 329° (NNW) 2,317 5.5 -8.2°
Maximum altitude 18:24:17 55° 251° (WSW) 937 3.7 -7.2°
Drops below altitude 10° 18:29:30 10° 173° (S) 2,340 6.4 -6.2°
Sets 18:31:57 0° 168° (SSE) 3,272 7.3 -5.7°
